Home   Weather   Reading   Past weeks

Flag for United Kingdom Past Weather in Reading, England, United Kingdom — Yesterday and Last 2 Weeks

Now
52 °F

Clear.


Feels Like: 47 °F
Forecast: N/A
Wind: 13 mph from South

Location: Benson

Current Time: Dec 7, 2016 at 10:28:21 pm

Latest Report: Dec 7, 2016 at 9:50 pm


Visibility: 10 mi

Pressure: 30.27 "Hg

Humidity: 88%

Dew Point: 48 °F

Location of ReadingLocation

Past Weather in Reading — Graph

°F

Reading Temperature Yesterday

Maximum temperature yesterday: 50 °F (at 8:50 pm)
Minimum temperature yesterday: 36 °F (at 12:50 am)
Average temperature yesterday: 44 °F

High & Low Weather Summary for the Past Weeks

 TemperatureHumidityPressure
High55 °F (Dec 7, 12:50 pm)100% (Nov 22, 9:50 pm)30.57 "Hg (Nov 22, 9:50 pm)
Low18 °F (Nov 30, 2:50 am)37% (Nov 28, 12:50 pm)29.80 "Hg (Nov 22, 8:50 pm)
Average39 °F88%30.28 "Hg
* Reported Nov 22 8:50 pm — Dec 7 8:50 pm, Reading, Weather by CustomWeather, © 2016

Note: Actual official high and low records may vary slightly from our data, if they occured in-between our weather recording intervals... More about our weather records

Advertising

Reading Weather History for the Previous 24 Hours

Scroll right to see more
 ConditionsComfort  
Time TempWeatherWind HumidityBarometerVisibility
8:50 pm
Wed, Dec 7
52 °FClear.17 mph88%30.27 "Hg10 mi
7:50 pm52 °FClear.17 mph88%30.27 "Hg10 mi
6:50 pm52 °FPassing clouds.20 mph88%30.27 "Hg6 mi
5:50 pm52 °FClear.13 mph88%30.27 "Hg10 mi
4:50 pm52 °FPartly cloudy.13 mph94%30.27 "HgN/A
3:50 pm52 °FBroken clouds.16 mph94%30.24 "HgN/A
2:50 pm54 °FSunny.15 mph88%30.24 "Hg10 mi
1:50 pm55 °FSunny.15 mph82%30.24 "Hg10 mi
12:50 pm55 °FSunny.12 mph82%30.24 "Hg10 mi
11:50 am54 °FSunny.9 mph88%30.27 "Hg10 mi
10:50 am54 °FPartly sunny.13 mph88%30.27 "Hg4 mi
9:50 am52 °FBroken clouds.15 mph94%30.27 "Hg3 mi
8:50 am52 °FPartly sunny.14 mph94%30.27 "Hg3 mi
7:50 am52 °FFog.14 mph94%30.27 "Hg2 mi
6:50 am50 °FFog.14 mph94%30.27 "Hg2 mi
5:50 am50 °FFog.14 mph94%30.27 "Hg2 mi
4:50 am50 °FLow clouds.13 mph94%30.27 "Hg3 mi
3:50 am50 °FFog.9 mph100%30.27 "Hg2 mi
2:50 am52 °FLow clouds.12 mph94%30.27 "Hg2 mi
1:50 am50 °FLow clouds.10 mph94%30.30 "Hg2 mi
11:50 pm
Tue, Dec 6
50 °FFog.12 mph94%30.30 "Hg2 mi
10:50 pm50 °FFog.8 mph94%30.30 "Hg2 mi
Weather by CustomWeather, © 2016

See weather overviewHow to use our weather pages